Flag for France Weather past 2 weeks in Nancy, France

Now
48 °F

Mostly cloudy.


Feels Like: 45 °F
Forecast: 37 / 48 °F
Wind: 8 mph from Southwest

Location: Nancy / Ochey

Current Time: Mar 1, 2015 at 6:00:03 PM

Latest Report: Mar 1, 2015 at 5:30 PM


Visibility: N/A

Pressure: 29.77 "Hg

Humidity: 87%

Dew point: 45 °F

Location of NancyLocation

Historic Weather in Nancy — Graph

°F

Nancy temperature yesterday

Maximum temperature yesterday: 46 °F (at 3:00 PM)
Minimum temperature yesterday: 28 °F (at 7:00 AM)
Average temperature yesterday: 37 °F

Past Weeks' High & Low Weather Summary

 TemperatureHumidityPressure
High54 °F (Feb 20, 2:30 PM)100% (Feb 14, 7:00 PM)30.69 "Hg (Feb 14, 7:00 PM)
Low27 °F (Feb 19, 1:00 AM)42% (Feb 28, 4:30 PM)29.47 "Hg (Feb 23, 12:30 PM)
Average38 °F87%30.00 "Hg
* Reported Feb 14 4:30 PM — Mar 1 4:30 PM, Nancy, Weather by CustomWeather, © 2015

Note: Actual official high and low records may vary slightly from our data, if they occured in-between our weather recording intervals... More about our weather records

Advertising

Nancy weather history for previous 24 hours

 ConditionsComfort  
Time TempWeatherWind HumidityBarometerVisibility
4:30 PM
Sun, Mar 1
50 °FPartly sunny.13 mph82%29.77 "HgN/A
4:00 PM48 °FMostly cloudy.9 mph94%29.77 "HgN/A
3:30 PM48 °FMostly cloudy.13 mph94%29.77 "HgN/A
3:00 PM48 °FPartly sunny.15 mph94%29.77 "HgN/A
2:30 PM48 °FLow clouds.15 mph94%29.77 "HgN/A
2:00 PM46 °FDrizzle. Fog.15 mph100%29.77 "Hg3 mi
1:30 PM48 °FFog.14 mph94%29.77 "Hg3 mi
1:00 PM46 °FDrizzle. Mostly cloudy.14 mph100%29.80 "Hg4 mi
12:30 PM46 °FDrizzle. Fog.15 mph93%29.80 "Hg2 mi
12:00 PM46 °FLow clouds.17 mph93%29.80 "HgN/A
11:30 AM45 °FMostly cloudy.16 mph100%29.80 "HgN/A
11:00 AM45 °FMostly cloudy.17 mph93%29.80 "Hg5 mi
10:30 AM43 °FMostly cloudy.18 mph100%29.83 "HgN/A
10:00 AM43 °FMostly cloudy.22 mph93%29.80 "HgN/A
9:30 AM43 °FMostly cloudy.20 mph93%29.80 "HgN/A
9:00 AM41 °FMostly cloudy.20 mph100%29.80 "HgN/A
8:30 AM41 °FFog.22 mph93%29.80 "Hg3 mi
8:00 AM39 °FDrizzle. Mostly cloudy.23 mph100%29.80 "Hg4 mi
7:30 AM39 °FFog.24 mph100%29.77 "Hg2 mi
7:00 AM39 °FMostly cloudy.23 mph93%29.77 "Hg6 mi
6:30 AM39 °FDrizzle. Mostly cloudy.21 mph93%29.77 "Hg4 mi
6:00 AM39 °FLight rain. Mostly cloudy.21 mph93%29.77 "Hg4 mi
5:30 AM39 °FLight rain. Mostly cloudy.20 mph93%29.77 "HgN/A
5:00 AM37 °FLight rain. Passing clouds.20 mph93%29.77 "HgN/A
4:30 AM37 °FLight rain. Passing clouds.20 mph93%29.77 "HgN/A
4:00 AM37 °FLight rain. Partly cloudy.20 mph93%29.80 "HgN/A
3:30 AM37 °FLight rain. Passing clouds.20 mph93%29.80 "Hg5 mi
3:00 AM37 °FPassing clouds.21 mph87%29.83 "HgN/A
2:30 AM37 °FLight rain. Overcast.20 mph81%29.83 "HgN/A
2:00 AM39 °FPassing clouds.18 mph65%29.86 "HgN/A
1:30 AM39 °FLight rain. Passing clouds.12 mph65%29.86 "HgN/A
1:00 AM39 °FPassing clouds.13 mph61%29.89 "HgN/A
12:30 AM39 °FClear.18 mph61%29.89 "HgN/A
12:00 AM39 °FPassing clouds.20 mph56%29.89 "HgN/A
11:30 PM
Sat, Feb 28
39 °FClear.18 mph56%29.89 "HgN/A
11:00 PM39 °FClear.15 mph56%29.92 "HgN/A
10:30 PM39 °FClear.16 mph56%29.95 "HgN/A
10:00 PM37 °FClear.15 mph56%29.95 "HgN/A
9:30 PM37 °FClear.12 mph60%29.98 "HgN/A
9:00 PM37 °FClear.10 mph60%29.98 "HgN/A
8:30 PM37 °FClear.10 mph60%29.98 "HgN/A
8:00 PM37 °FClear.9 mph60%30.01 "HgN/A
7:30 PM37 °FClear.9 mph65%30.01 "HgN/A
7:00 PM39 °FClear.7 mph61%30.01 "HgN/A
6:30 PM39 °FClear.8 mph61%30.01 "HgN/A
6:00 PM43 °FClear.7 mph53%30.01 "HgN/A
Weather by CustomWeather, © 2015

See weather overviewHow to use our weather pages